Change the Weather History Date:

Sunday, August 18, 2013

  Actual Average Record
Temperature  
Mean Temperature 76 °F -  
Max Temperature 83 °F 81 °F 87 °F (1998)
Min Temperature 68 °F 68 °F 62 °F (2010)
Cooling Degree Days 10    
Growing Degree Days 26 (Base 50)    
Moisture  
Dew Point 64 °F    
Average Humidity 67    
Maximum Humidity 83    
Minimum Humidity 50    
Precipitation  
Precipitation 0.00 in - - ()
Sea Level Pressure  
Sea Level Pressure 29.99 in    
Wind  
Wind Speed 6 mph (ENE)    
Max Wind Speed 15 mph    
Max Gust Speed 22 mph    
Visibility 10 miles    
Events      
Averages and records for this station are not official NWS values.
T = Trace of Precipitation, MM = Missing Value Source: NWS Daily Summary

Daily Weather History Graph

Daily Weather History Graph

Search for Another Location

Airport or City:

Trip Planner

Search our weather history database for the weather conditions in past years. The results will help you decide how hot, cold, wet, or windy it might be!

Date:

Astronomy

Aug. 18, 2013 Rise Set
Actual Time 6:11 AM HST 6:59 PM HST
Civil Twilight 5:48 AM HST 7:22 PM HST
Nautical Twilight 5:21 AM HST 7:49 PM HST
Astronomical Twilight 4:53 AM HST 8:17 PM HST
Moon 5:09 PM HST (8/18) 3:43 AM HST (8/18)
Length of Visible Light 13h 34m
Length of Day
12h 48m
Waxing Gibbous, 93% of the Moon is Illuminated
Aug 18
Waxing Gibbous
Aug 20
Full
Aug 27
Last Quarter
Sep 5
New
Sep 12
First Quarter

Hourly Weather History & Observations

Time (HST) Temp. Heat Index Dew Point Humidity Pressure Visibility Wind Dir Wind Speed Gust Speed Precip Events Conditions
12:55 AM 74.8 °F - 64.2 °F 69% 30.00 in 10.0 mi East 8.1 mph - N/A   Mostly Cloudy
1:55 AM 73.6 °F - 63.0 °F 69% 29.99 in 10.0 mi East 5.8 mph - N/A   Partly Cloudy
2:55 AM 72.7 °F - 62.4 °F 70% 29.98 in 10.0 mi Calm Calm - N/A   Clear
3:55 AM 70.7 °F - 61.9 °F 74% 29.97 in 10.0 mi Calm Calm - N/A   Scattered Clouds
4:55 AM 68.5 °F - 62.2 °F 80% 29.98 in 10.0 mi Variable 4.6 mph - N/A   Clear
5:55 AM 68.7 °F - 61.9 °F 79% 29.99 in 10.0 mi Calm Calm - N/A   Clear
6:55 AM 68.2 °F - 63.0 °F 83% 30.00 in 10.0 mi Calm Calm - N/A   Clear
7:55 AM 75.4 °F - 63.7 °F 67% 30.00 in 10.0 mi ENE 6.9 mph - N/A   Clear
8:55 AM 78.1 °F - 63.7 °F 61% 30.01 in 10.0 mi ENE 10.4 mph - N/A   Scattered Clouds
9:55 AM 80.4 °F 82.2 °F 65.1 °F 59% 30.02 in 10.0 mi SE 6.9 mph - N/A   Mostly Cloudy
10:55 AM 79.2 °F - 64.9 °F 62% 30.02 in 10.0 mi ESE 10.4 mph - N/A   Mostly Cloudy
11:55 AM 81.9 °F 83.2 °F 63.9 °F 54% 30.01 in 10.0 mi ESE 10.4 mph 18.4 mph N/A   Scattered Clouds
12:55 PM 82.8 °F 84.3 °F 64.6 °F 54% 29.99 in 10.0 mi ENE 15.0 mph 21.9 mph N/A   Scattered Clouds
1:55 PM 83.8 °F 84.9 °F 63.3 °F 50% 29.98 in 10.0 mi ESE 12.7 mph 18.4 mph N/A   Partly Cloudy
2:55 PM 81.0 °F 82.7 °F 64.8 °F 58% 29.97 in 10.0 mi NE 12.7 mph - N/A   Mostly Cloudy
3:55 PM 81.1 °F 82.9 °F 65.1 °F 58% 29.97 in 10.0 mi ENE 9.2 mph - N/A   Partly Cloudy
4:55 PM 79.7 °F - 65.3 °F 61% 29.96 in 10.0 mi ENE 8.1 mph - N/A   Scattered Clouds
5:55 PM 77.9 °F - 65.7 °F 66% 29.96 in 10.0 mi East 10.4 mph - N/A   Partly Cloudy
6:55 PM 74.7 °F - 66.0 °F 74% 29.97 in 10.0 mi North 5.8 mph - N/A   Partly Cloudy
7:55 PM 74.1 °F - 65.1 °F 73% 29.99 in 10.0 mi NE 5.8 mph - N/A   Partly Cloudy
8:55 PM 74.1 °F - 65.1 °F 73% 30.01 in 10.0 mi Variable 5.8 mph - N/A   Mostly Cloudy
9:55 PM 73.9 °F - 64.9 °F 73% 30.01 in 10.0 mi ENE 5.8 mph - N/A   Partly Cloudy
10:55 PM 73.2 °F - 63.9 °F 72% 30.03 in 10.0 mi Calm Calm - N/A   Scattered Clouds
11:55 PM 73.4 °F - 64.4 °F 73% 30.02 in 10.0 mi Calm Calm - N/A   Overcast